Location: Unsp...
(0.0000°N, 0.0000°E)
Time: 23:59:24
(UTC+02:00)

Daily predictions for brighter satellites

Satellite Brightness Start Highest point End
(mag) Time Altitude Azimuth Time Altitude Azimuth Time Altitude Azimuth
Cosmos 1943 Rocket 3.9 20:19:38 10° NW 20:24:41 34° WSW 20:29:46 10° S
Lacrosse 5 rocket 3.5 20:22:51 10° NNE 20:25:01 13° ENE 20:27:14 10° E
Cosmos 1707 4.0 20:22:26 10° SE 20:25:25 21° E 20:28:23 10° NE
Cosmos 1484 Rocket 3.4 20:23:44 10° SSE 20:27:16 36° ENE 20:30:49 10° N
Sakura Rocket 3.7 20:23:42 10° SW 20:29:00 42° SSE 20:33:02 10° E
MSX 4.0 20:25:31 10° SSE 20:31:09 55° ENE 20:36:43 10° N
Cosmos 1818 3.6 20:26:39 10° NNW 20:32:01 69° ENE 20:37:21 10° SSE
H-2A R/B 2.8 20:30:32 10° SSW 20:33:30 33° SE 20:43:36 10° ENE
GRACE-1 3.9 20:30:44 10° N 20:33:35 72° E 20:36:29 10° S
IDEFIX/ARIANE 42P 2.7 20:28:32 10° S 20:33:47 82° WSW 20:39:03 10° NNW
GRACE-2 3.9 20:31:09 10° N 20:34:01 72° E 20:36:54 10° S
Cosmos 1340 2.9 20:30:54 10° S 20:34:41 74° W 20:38:27 10° N
Cosmos 1953 3.3 20:31:53 10° NNE 20:35:23 29° E 20:38:57 10° SSE
EUTELSAT W3B 2.7 20:37:44 10° W 20:39:46 83° S 20:44:41 10° E
Tiangong 1 2.0 20:38:15 10° SSW 20:41:00 28° SE 20:43:44 10° ENE
Helios 1A 3.6 20:42:19 10° SE 20:46:15 37° ENE 20:50:09 10° N
Cosmos 1805 3.8 20:46:23 10° NNE 20:50:01 37° E 20:53:39 10° SSE
COSMOS 2441 4.3 20:45:12 10° SSE 20:50:03 81° E 20:54:51 10° N
OAO 2 Rocket 3.5 20:47:09 10° SW 20:52:26 83° NW 20:57:45 10° NE
OAO 1 Rocket 4.5 20:49:45 10° NW 20:55:02 72° NE 20:58:58 18° ESE
Cosmos-2242 2.9 20:51:13 10° N 20:55:28 73° E 20:59:44 10° S
Ariane H10 1.9 20:54:11 10° WNW 20:56:19 67° N 20:59:41 15° E
HETE-2 4.5 20:54:18 10° W 20:58:26 80° S 21:01:13 20° E
Okean 3 Rocket 3.5 20:56:38 10° S 21:01:05 87° E 21:05:32 10° N
ARIANE 5 R/B 4.3 20:57:58 10° WSW 21:02:20 67° S 21:38:49 10° E
ARIANE 5 R/B 4.3 20:57:58 10° WSW 21:02:21 67° S 21:38:49 10° E
ARIANE 5 R/B 4.3 20:57:58 10° WSW 21:02:21 67° S 21:38:48 10° E
Mugunghwa Rocket 4.3 20:55:55 10° WNW 21:03:19 74° SSW 21:08:09 20° SE
Meteor 1-24 Rocket 3.9 20:59:46 10° S 21:05:31 53° E 21:11:04 10° NNE
SEDSat Delta rocket 3.5 21:03:48 10° NW 21:07:37 41° NE 21:09:35 24° E
Cosmos 1408 Rocket 4.1 21:05:05 13° SSE 21:08:40 37° E 21:12:45 10° NNE
Cosmos 2279 Rocket 4.1 21:05:35 10° N 21:11:49 82° W 21:18:03 10° S
Cosmos 1470 3.8 21:09:36 10° NNE 21:12:46 26° E 21:12:46 26° E
OAO 3 Rocket 4.3 21:10:29 10° NNW 21:14:50 31° NE 21:16:48 23° ENE
ARIANE 5 DEB (SYLDA) 2.5 21:13:44 10° WSW 21:15:58 51° S 21:16:53 38° SE
OTV 4 2.8 21:14:54 10° SSW 21:15:31 14° S 21:15:31 14° S
Intelsat 5-2 Rocket 3.2 21:15:01 10° W 21:18:01 30° SSW 21:18:26 28° S
HJ-1C 3.3 21:18:51 27° S 21:20:34 84° W 21:23:55 10° NNW
USA 229 DEB 3.6 21:17:14 10° SSW 21:24:11 84° ESE 21:31:06 10° NNE
USA 229 3.6 21:17:21 10° SSW 21:24:17 83° ESE 21:31:12 10° NNE
ARIANE 44L R/B 1.9 21:23:50 10° WNW 21:26:01 49° N 21:26:01 49° N
Lacrosse 5 2.5 21:21:19 10° NW 21:26:13 52° WSW 21:29:23 21° S
FREGAT/IRIS 4.2 21:24:13 14° SSW 21:26:34 36° W 21:29:28 10° NNW
ALOS 3.5 21:30:10 25° ENE 21:30:10 25° ENE 21:33:15 10° NNE
Cosmos 405 Rocket 3.0 21:26:36 10° SSW 21:30:17 64° W 21:33:57 10° N
Cosmos 1076 Rocket 3.3 21:29:31 19° S 21:32:31 86° E 21:36:45 10° N
ARIANE 5 DEB (SYLDA) 3.6 21:25:18 10° WSW 21:34:10 65° S 21:35:16 47° ESE
Cosmos 1697 Rocket 3.9 21:31:11 10° NNE 21:34:50 24° ENE 21:34:50 24° ENE
Cosmos 1733 4.5 21:35:44 10° NNE 21:37:49 29° NNE 21:37:49 29° NNE
ISS -1.2 21:42:04 10° WNW 21:44:38 21° SW 21:44:44 21° SW
METEOR-M 4.3 21:44:02 26° S 21:47:06 70° WSW 21:52:24 10° NNW
Resurs 01 Rocket 3.2 21:47:14 14° SSW 21:50:33 32° WSW 21:54:31 10° NW
Cosmos 1763 Rocket 3.5 21:46:27 10° N 21:51:00 57° NE 21:51:00 57° NE
Cosmos 1656 3.8 21:46:13 10° N 21:51:20 53° ENE 21:51:20 53° ENE
Cosmos 1544 4.4 21:50:10 10° NNW 21:53:32 37° W 21:54:00 35° WSW
Hubble Space Telescope 1.3 21:50:53 10° WSW 21:54:25 57° W 21:54:25 57° W
Cosmos 1428 Rocket 4.4 21:54:40 59° SE 21:55:28 65° E 22:01:38 10° NNE
Delta 7925 Rocket 3.8 21:55:20 10° WNW 22:02:48 77° NNE 22:03:24 71° ENE
Lacrosse 5 rocket 2.9 22:00:05 10° WNW 22:04:03 33° WSW 22:04:17 33° SW
Centaur D AC-29 2.2 22:06:56 10° WNW 22:12:05 41° WSW 22:12:05 41° WSW
Ariane 42L R/B 4.5 22:10:21 10° WSW 22:13:07 22° WSW 22:13:07 22° WSW
ATLAS 2A CENTAUR R/B 4.0 22:37:05 10° W 22:40:32 20° WNW 22:40:32 20° WNW
Cosmos 1980 Rocket 4.5 23:06:28 10° NNW 23:08:00 19° NW 23:08:00 19° NW
